"Pseudo-MPEC" for P22oY70

Created 2026 Aug 18 1:35:14 UT using Find_Orb

Click here for an explanation of pseudo-MPECs

 
 Astrometry: 
     P22oY70 0C2026 08 03.58604521 34 47.176+24 57 06.21   ~87L5 21.35wXNEOCPF52
     P22oY70 0C2026 08 03.60253821 34 47.009+24 57 11.38   ~87L5 21.14wXNEOCPF52
     P22oY70 0C2026 08 03.61085221 34 46.909+24 57 13.76   ~87L5 21.35wXNEOCPF52
     P22oY70*0C2026 08 07.33208821 34 17.750+25 12 53.59   ~87GK 21.35wXNEOCPF52
     P22oY70 0C2026 08 07.34423621 34 17.594+25 12 56.08   ~87GK 21.35wXNEOCPF52
     P22oY70 0C2026 08 07.35637421 34 17.426+25 12 58.41   ~87GK 21.35wXNEOCPF52
     P22oY70 0C2026 08 07.36849021 34 17.256+25 13 00.87   ~87GK 21.52wXNEOCPF52

Station data:
(F52) Pan-STARRS 2, Haleakala  (N20.707382 W156.255910)  US/Hawaii.
   Observers J. Herman, T. Lowe, P. Minguez, A. Schultz, I. Smith. Measurers
   K. Chambers, T. de Boer, J. Fairlamb, H. Gao, M. Huber, C.-C. Lin, E.
   Magnier, Y. Ramanjooloo, R. Wainscoat, R. Weryk. 1.8-m Ritchey-Chrétien +
   CCD.

Orbital elements:  P22oY70
   Perihelion 2026 Jun 15.125250 +/- 52.7 TT =  3:00:21.6 (JD 2461206.625250)
Epoch 2026 Aug  7.0 TT = JDT 2461259.5   Earth MOID: 0.5366   Ju: 0.4662
M   2.433986510 +/- 10              Sa: 0.2087                   AutoNEOCP
n   0.046033059 +/- 0.0526          Peri.   39.712571 +/- 54
a   7.710623341 +/- 5.88            Node   247.698632 +/- 19
e   0.80374401 +/- 0.133            Incl.   16.552682 +/- 2.5
P  21.41087                H 19.62  G  0.15   U 10.8  SR
q 1.513255940 +/- 0.17    Q 13.90799074 +/- 2.67          (J2000 ecliptic)
From 7 observations 2026 Aug. 3-7; mean residual 0".09
Residuals in arcseconds: 
260803 F52  .01+  .04+    260807 F52  .07+  .15-    260807 F52  .12-  .17+    
260803 F52  .10+  .08+    260807 F52  .08+  .01-    
260803 F52  .11-  .12-    260807 F52  .02-  .00     

Ephemerides (geocentric):
Date (UTC) HH   RA             Dec           delta  r     elong  mag " sig PA
---- --------  ------------   ------------  ------ ------ -----  --- --------
2026 08 18 02  21 32 29.788   +25 05 42.68  .79498 1.7075 141.5 21.3  420 179
2026 08 18 03  21 32 29.407   +25 05 32.67  .79517 1.7078 141.5 21.3  422 179
2026 08 18 04  21 32 29.026   +25 05 22.60  .79536 1.7080 141.5 21.3  425 179
2026 08 18 05  21 32 28.647   +25 05 12.47  .79556 1.7082 141.5 21.3  427 179
2026 08 18 06  21 32 28.268   +25 05 02.29  .79575 1.7085 141.5 21.3  430 179
2026 08 18 07  21 32 27.889   +25 04 52.04  .79594 1.7087 141.5 21.3  433 179
2026 08 18 08  21 32 27.512   +25 04 41.74  .79614 1.7089 141.5 21.3  435 179
2026 08 18 09  21 32 27.135   +25 04 31.37  .79633 1.7092 141.5 21.3  438 179
2026 08 18 10  21 32 26.760   +25 04 20.95  .79652 1.7094 141.6 21.3  440 179
2026 08 18 11  21 32 26.384   +25 04 10.47  .79672 1.7096 141.6 21.3  443 179
2026 08 18 12  21 32 26.010   +25 03 59.93  .79691 1.7099 141.6 21.3  445 179
2026 08 18 13  21 32 25.637   +25 03 49.33  .79711 1.7101 141.6 21.3  448 179
2026 08 18 14  21 32 25.264   +25 03 38.68  .79730 1.7103 141.6 21.3  451 179
2026 08 18 15  21 32 24.892   +25 03 27.97  .79750 1.7106 141.6 21.3  453 179
2026 08 18 16  21 32 24.521   +25 03 17.20  .79769 1.7108 141.6 21.3  456 179
2026 08 18 17  21 32 24.151   +25 03 06.37  .79789 1.7110 141.6 21.3  458 179
2026 08 18 18  21 32 23.782   +25 02 55.48  .79808 1.7113 141.6 21.3  461 179
2026 08 18 19  21 32 23.413   +25 02 44.53  .79828 1.7115 141.7 21.3  464 179
2026 08 18 20  21 32 23.046   +25 02 33.53  .79847 1.7117 141.7 21.3  466 179
2026 08 18 21  21 32 22.679   +25 02 22.47  .79867 1.7120 141.7 21.3  469 179
2026 08 18 22  21 32 22.313   +25 02 11.35  .79887 1.7122 141.7 21.3  472 179
2026 08 18 23  21 32 21.948   +25 02 00.18  .79906 1.7124 141.7 21.3  474 179
2026 08 19 00  21 32 21.583   +25 01 48.94  .79926 1.7127 141.7 21.3  477 179
2026 08 19 01  21 32 21.220   +25 01 37.65  .79946 1.7129 141.7 21.3  479 179
2026 08 19 02  21 32 20.858   +25 01 26.31  .79966 1.7131 141.7 21.3  482 179
2026 08 19 03  21 32 20.496   +25 01 14.90  .79985 1.7134 141.8 21.3  485 179
2026 08 19 04  21 32 20.135   +25 01 03.44  .80005 1.7136 141.8 21.3  488 179
2026 08 19 05  21 32 19.775   +25 00 51.92  .80025 1.7139 141.8 21.3  490 179
2026 08 19 06  21 32 19.416   +25 00 40.34  .80045 1.7141 141.8 21.3  493 179
2026 08 19 07  21 32 19.058   +25 00 28.71  .80065 1.7143 141.8 21.4  496 179
2026 08 19 08  21 32 18.701   +25 00 17.02  .80085 1.7146 141.8 21.4  498 179
2026 08 19 09  21 32 18.345   +25 00 05.27  .80104 1.7148 141.8 21.4  501 179
2026 08 19 10  21 32 17.990   +24 59 53.47  .80124 1.7150 141.8 21.4  504 179
2026 08 19 11  21 32 17.635   +24 59 41.61  .80144 1.7153 141.8 21.4  506 179
2026 08 19 12  21 32 17.282   +24 59 29.69  .80164 1.7155 141.9 21.4  509 179
2026 08 19 13  21 32 16.929   +24 59 17.72  .80184 1.7157 141.9 21.4  512 179
2026 08 19 14  21 32 16.577   +24 59 05.69  .80204 1.7160 141.9 21.4  515 179
2026 08 19 15  21 32 16.227   +24 58 53.60  .80224 1.7162 141.9 21.4  517 179
2026 08 19 16  21 32 15.877   +24 58 41.46  .80245 1.7164 141.9 21.4  520 179
2026 08 19 17  21 32 15.528   +24 58 29.26  .80265 1.7167 141.9 21.4  523 179
2026 08 19 18  21 32 15.180   +24 58 17.00  .80285 1.7169 141.9 21.4  526 179
2026 08 19 19  21 32 14.833   +24 58 04.69  .80305 1.7172 141.9 21.4  528 179
2026 08 19 20  21 32 14.487   +24 57 52.32  .80325 1.7174 141.9 21.4  531 179
2026 08 19 21  21 32 14.142   +24 57 39.90  .80345 1.7176 142.0 21.4  534 179
2026 08 19 22  21 32 13.798   +24 57 27.42  .80366 1.7179 142.0 21.4  537 179
2026 08 19 23  21 32 13.455   +24 57 14.88  .80386 1.7181 142.0 21.4  540 179
2026 08 20 00  21 32 13.113   +24 57 02.29  .80406 1.7183 142.0 21.4  542 179
2026 08 20 01  21 32 12.772   +24 56 49.64  .80426 1.7186 142.0 21.4  545 179